Location: Izdebno
(52.6670°N, 16.2170°E)
Time: 04:42:09
(UTC+02:00)

SR - Pass Details

Date: 27 February 2024
Orbit: 577 x 862 km, 66.7° (Epoch: 22 April)

Event Time Altitude Azimuth Distance (km) Brightness Sun altitude
Rises 14:18:13 0° 192° (SSW) 3,436 ? 22.9°
Reaches altitude 10° 14:20:50 10° 186° (S) 2,498 ? 22.7°
Maximum altitude 14:26:14 41° 118° (ESE) 1,205 ? 22.2°
Drops below altitude 10° 14:31:29 10° 49° (NE) 2,420 ? 21.7°
Sets 14:33:58 0° 43° (NE) 3,318 ? 21.5°
